Regional Weather Roundup
Issued by NWS

Home | Current Version | Previous Version | Graphics & Text | Print | Product List | Glossary On
Versions: 1 2 3 4 5 6 7 8 9 10 11 12 13 14 15 16 17 18 19 20 21 22 23 24 25 26 27 28 29 30 31 32 33 34 35 36 37 38 39 40 41 42 43 44 45 46 47 48 49 50
000
ASUS43 KMKX 210520
RWRWI

WISCONSIN REGIONAL WEATHER ROUNDUP
NATIONAL WEATHER SERVICE MILWAUKEE/SULLIVAN WI
1100 PM CST FRI JAN 20 2017

NOTE: "FAIR" INDICATES FEW OR NO CLOUDS BELOW 12,000 FEET WITH NO
SIGNIFICANT WEATHER AND/OR OBSTRUCTIONS TO VISIBILITY.

WIZ001-002-006>008-014>016-023>028-210600-
NORTHWEST WISCONSIN

CITY           SKY/WX    TMP DP  RH WIND       PRES   REMARKS
SUPERIOR ARPT  CLOUDY    35  35 100 E3        29.60R FOG
ASHLAND        LGT RAIN  35  35 100 VRB3      29.62S FOG
HAYWARD        CLOUDY    36  33  89 VRB6      29.59S WCI  31
SIREN          CLOUDY    35  34  99 SE3       29.58S FOG
CUMBERLAND     FOG       32  32 100 SE7       29.57F VSB 1/2 WCI  26
RICE LAKE      FOG       34  34  99 SE6       29.59F VSB 1/2 WCI  29
CHETEK         CLOUDY    34  34 100 CALM      29.59S FOG
LADYSMITH      CLOUDY    35  34  98 SE5       29.62S FOG     WCI  31
EAU CLAIRE     CLOUDY    35  34  96 E7        29.58F FOG     WCI  29
MENOMONIE        N/A    N/A N/A N/A MISG        N/A
NEW RICHMOND   FOG       34  34 100 SE3       29.57S VSB 1
OSCEOLA        CLOUDY    35  35 100 E7        29.59F FOG     WCI  29
$$

WIZ003>005-009-010-017-018-210600-
NORTH CENTRAL WISCONSIN

CITY           SKY/WX    TMP DP  RH WIND       PRES   REMARKS
MANITOWISH WTR DRIZZLE   33  33 100 S6        29.61S WCI  27
ARBOR VITAE    CLOUDY    37  36  96 SE5       29.62S FOG     WCI  33
WOODRUFF       CLOUDY    37  36  96 SE5       29.62S FOG     WCI  33
RHINELANDER    CLOUDY    34  34 100 S6        29.63S FOG     WCI  29
EAGLE RIVER    MIX PCPN  33  33 100 S7        29.62S WCI  27
LAND O LAKES   CLOUDY    34  34 100 SE5       29.64S FOG     WCI  30
PHILLIPS       CLOUDY    33  33 100 SE3       29.60S FOG
TOMAHAWK       CLOUDY    33  32  98 SE3       29.62S FOG
MEDFORD        CLOUDY    32  32  99 SE5       29.60S FOG     WCI  28
MERRILL        CLOUDY    33  33 100 SE6         N/A  FOG     WCI  28
$$

WIZ029-030-035-036-043>047-210600-
CENTRAL WISCONSIN

CITY           SKY/WX    TMP DP  RH WIND       PRES   REMARKS
WAUSAU         CLOUDY    33  33 100 E7        29.61S FOG     WCI  27
MOSINEE        CLOUDY    32  32 100 E6        29.63S FOG     WCI  26
MARSHFIELD     FOG       33  33 100 E6        29.60S VSB 1/2 WCI  28
STEVENS POINT  FOG       32  32 100 E6        29.64S VSB 1/2 WCI  26
WAUPACA        CLOUDY    36  34  94 CALM      29.66R FOG
WAUTOMA        MIX PCPN  35  34  96 E3        29.64F FOG
WISC RAPIDS    CLOUDY    34  34 100 E6        29.63S FOG     WCI  29
CAMP DOUGLAS   FOG       34  34 100 E7        29.60F VSB 1/4 WCI  28
$$

WIZ011>013-019>022-031-037>040-048>050-210600-
NORTHEAST WISCONSIN

CITY           SKY/WX    TMP DP  RH WIND       PRES   REMARKS
ANTIGO         CLOUDY    32  32 100 SE8       29.64S FOG     WCI  24
SHAWANO        FOG       34  33  95 CALM      29.67S VSB 1/2
OCONTO         CLOUDY    32  32 100 CALM      29.68S VSB 1/2
STURGEON BAY   FOG       34  34 100 CALM      29.69S VSB 1
GREEN BAY      FOG       36  35  96 CALM      29.67R VSB 1/4
MANITOWOC      CLOUDY    36  34  92 SE5       29.68S WCI  32
APPLETON       FOG       34  34 100 E3        29.65R VSB 1/4
CLINTONVILLE   FOG       34  32  93 E5        29.66S VSB 1/2 WCI  30
OSHKOSH        FOG       34  33  96 E5        29.65R VSB 1/4 WCI  30
$$

WIZ032>034-041-042-053>061-210600-
SOUTHWEST WISCONSIN

CITY           SKY/WX    TMP DP  RH WIND       PRES   REMARKS
LA CROSSE      CLOUDY    39  36  89 E6        29.58F WCI  35
SPARTA         CLOUDY    34  34 100 CALM      29.61F FOG
VIROQUA        CLOUDY    34  34 100 E9        29.57F VSB 1/4 WCI  27
BOSCOBEL       LGT RAIN  37  36  96 VRB3      29.59F VSB 1/2
PRAIRIE DU CHI CLOUDY    37  36  96 E5        29.57F FOG     WCI  33
PLATTEVILLE    CLOUDY    36  36 100 E9        29.57F VSB 1/4 WCI  29
$$

WIZ056-057-062-063-064-067-068-210600-
SOUTH CENTRAL WISCONSIN

CITY           SKY/WX    TMP DP  RH WIND       PRES   REMARKS
REEDSBURG      CLOUDY    35  35 100 CALM      29.60F FOG
BARABOO/DELLS  FOG       35  35  99 E3        29.61S VSB 1/4
LONE ROCK      FOG       36  35  96 E6        29.60F VSB 1/2 WCI  31
MINERAL POINT  SNOW      37  37 100 E6        29.58F VSB 1/4 WCI  33
MADISON        FOG       35  35 100 CALM      29.62F VSB 1/4
MIDDLETON      CLOUDY    37  37 100 E3        29.62F VSB 1/4
WATERTOWN      FOG       36  36 100 E3        29.63S VSB 3/4
MONROE         SNOW      36  36 100 NE5       29.59S VSB 1/4 WCI  32
JANESVILLE     RAIN      37  37 100 E5        29.61F VSB 1/2 WCI  34
$$

WIZ051-052-058>065-066-070>072-210600-
SOUTHEAST WISCONSIN

CITY           SKY/WX    TMP DP  RH WIND       PRES   REMARKS
MILWAUKEE      FOG       38  37  97 E3        29.65S VSB 1/4
WAUKESHA       FOG       34  34 100 NE3       29.64F VSB 1/2
MILWAUKEE/TIMM FOG       36  34  93 CALM      29.65F VSB 1/2
RACINE         FOG       38  37  97 SE5       29.67S VSB 1/4 WCI  34
KENOSHA        FOG       38  37  97 E5        29.64S VSB<1/4 WCI  34
FOND DU LAC    CLOUDY    36  33  89 E3        29.64F FOG
SHEBOYGAN      FOG       35  34  96 CALM      29.66S VSB 1/2
WEST BEND      FOG       34  34 100 CALM      29.65S VSB 1/4
JUNEAU         FOG       35  34  99 E5        29.64F VSB 1/4 WCI  30
$$

LSZ147-162-210600-
LAKE SUPERIOR

STATION/POSITION TIME  TEMP    WIND        PRES    WAVE
                       AIR SEA DIR/SP/G            HT/PER
                 (UTC) (F)     (DEG/KT/KT) (MB)    (FT/S)
DEVILS ISLAND    0500   35     130/  6/  7 1003.9R
PORT WING        0440   36     120/  3/  5 1003.0R
SAXON HARBOR     0430   33        CALM     1003.4R
$$

LMZ867-665-643>646-210600-
LAKE MICHIGAN

STATION/POSITION TIME  TEMP    WIND        PRES    WAVE
                       AIR SEA DIR/SP/G            HT/PER
                 (UTC) (F)     (DEG/KT/KT) (MB)    (FT/S)
NORTHPORT PIER   0440   33        CALM     1005.4S
SISTER BAY       0435   33        CALM       N/A
KEWAUNEE LAKESHO 0454   35      CALM  /  1 1005.0R
SHEBOYGAN LAKESH 0500   37     110/  7/  8 1005.0R
PORT WASHINGTON  0440   36      60/  3/  4 1005.8R
KENOSHA   LAKESH 0500   36        CALM     1004.1
$$

TC  - TEMPERATURE IN CELSIUS
VSB - VISIBILITY IN STATUTE MILES
WCI - WIND CHILL INDEX
HX  - HEAT INDEX





USA.gov is the U.S. government's official web portal to all federal, state and local government web resources and services.